• Join FlightAware (Why Join?)
  • Login
  • US Flag GB Flag 
02:51 EDT


 

Airport Tracker/Info


-or-


 

Live Flight TrackerFlight Track Log ✈ WBR2634 ✈ 23-Jul-2013 ✈ KBRL - KORD

Flight Track Log - Related Links

Times and Time Zones

All times are in EDT time to prevent confusion due to time zone crossing. See the WBR2634 flight status page for this flight to view local times or setup timezone preferences in your user account.

Time Position Orientation Groundspeed Altitude Reporting Facility
EDT Latitude Longitude Course Direction KTS MPH feet Rate Location/Type
21:31 40.8175 -91.1100 65° Northeast 81 93 2,600  Level Chicago Center
21:32 40.8250 -91.0756 74° East 96 110 3,600 900 Climbing Chicago Center
21:33 40.8610 -90.7780 57° Northeast  Level FlightAware Approximate
21:33 40.8356 -91.0403 68° East 100 115 4,500  Level Chicago Center
21:34 40.9054 -90.7450 72° East  Level FlightAware Approximate
21:34 40.8517 -90.9950 65° Northeast 110 127 5,400  Level Chicago Center
21:35 40.9207 -90.6884 65° Northeast  Level FlightAware Approximate
21:35 40.8656 -90.9556 65° Northeast 116 133 6,100  Level Chicago Center
21:36 40.9396 -90.6336 65° Northeast  Level FlightAware Approximate
21:36 40.8797 -90.9131 66° East 124 143 6,900  Level Chicago Center
21:37 40.8950 -90.8689 65° Northeast 130 150 7,600 600 Climbing Chicago Center
21:38 40.9103 -90.8217 67° East 138 159 8,200 540 Climbing Chicago Center
21:39 40.9261 -90.7750 66° East 139 160 8,800 420 Climbing Chicago Center
21:40 40.9433 -90.7250 65° Northeast 149 171 9,100 120 Climbing Chicago Center
21:41 40.9661 -90.6600 65° Northeast 163 188 9,100  Level Chicago Center
21:42 40.9831 -90.6019 69° East 170 196 9,100  Level Chicago Center
21:43 41.0019 -90.5461 66° East 167 192 9,100  Level Chicago Center
21:44 41.0200 -90.4903 67° East 166 191 9,100  Level Chicago Center
21:45 41.0383 -90.4333 67° East 168 193 9,100 -60 Level Chicago Center
21:46 41.0558 -90.3767 68° East 166 191 9,000 -60 Descending Chicago Center
21:47 41.0747 -90.3208 66° East 166 191 9,000  Level Chicago Center
21:48 41.0939 -90.2644 66° East 167 192 9,000  Level Chicago Center
21:49 41.1169 -90.1972 66° East 167 192 9,000  Level Chicago Center
21:50 41.1347 -90.1428 67° East 164 189 9,100  Climbing Chicago Center
21:51 41.1536 -90.0856 66° East 166 191 9,100  Level Chicago Center
21:52 41.1722 -90.0300 66° East 165 190 9,100  Level Chicago Center
21:53 41.1908 -89.9725 67° East 168 193 9,100  Level Chicago Center
21:54 41.2106 -89.9167 65° Northeast 167 192 9,100  Level Chicago Center
21:55 41.2294 -89.8603 66° East 167 192 9,100  Level Chicago Center
21:56 41.2486 -89.8039 66° East 167 192 9,100  Level Chicago Center
21:58 41.2706 -89.7369 66° East 165 190 9,100  Level Chicago Center
21:59 41.2872 -89.6797 69° East 166 191 9,100 -60 Level Chicago Center
22:00 41.3044 -89.6225 68° East 166 191 9,000 -60 Descending Chicago Center
22:01 41.3211 -89.5653 69° East 166 191 9,000  Level Chicago Center
22:02 41.3356 -89.5089 71° East 164 189 9,100  Climbing Chicago Center
22:03 41.3519 -89.4550 68° East 159 183 9,100  Level Chicago Center
22:04 41.3708 -89.4017 65° Northeast 159 183 9,100  Level Chicago Center
22:05 41.3856 -89.3494 69° East 153 176 9,100 -60 Level Chicago Center
22:06 41.4053 -89.2869 67° East 154 177 9,000  Descending Chicago Center
22:07 41.4200 -89.2353 69° East 151 174 9,100  Climbing Chicago Center
22:08 41.4336 -89.1906 68° East 150 173 9,100  Level Chicago Center
22:09 41.4544 -89.1306 65° Northeast 151 174 9,100  Level Chicago Center
22:10 41.4706 -89.0781 68° East 153 176 9,100  Level Chicago Center
22:11 41.4861 -89.0261 68° East 152 175 9,100  Level Chicago Center
22:12 41.5028 -88.9739 67° East 154 177 9,100  Level Chicago Center
22:13 41.5192 -88.9228 67° East 152 175 9,100 -60 Level Chicago Center
22:14 41.5344 -88.8694 69° East 155 178 9,000 -240 Descending Chicago Center
22:15 41.5500 -88.8156 69° East 156 180 8,700 -360 Descending Chicago Center
22:16 41.5703 -88.7519 67° East 156 180 8,300 -300 Descending Chicago Center
22:17 41.5875 -88.7006 66° East 154 177 8,100 -120 Descending Chicago Center
22:18 41.6033 -88.6486 68° East 152 175 8,100  Level Chicago Center
22:19 41.6214 -88.6006 63° Northeast 148 170 8,100  Level Chicago Center
22:20 41.6436 -88.5561 56° Northeast 144 166 8,100  Level Chicago Center
22:21 41.6492 -88.4994 83° East 151 174 8,100  Level Chicago Center
22:22 41.6583 -88.4436 78° East 154 177 8,100  Level Chicago Center
22:23 41.6703 -88.3778 76° East 153 176 8,100  Level Chicago Center
22:24 41.6800 -88.3225 77° East 153 176 8,100 -300 Level Chicago Center
22:25 41.6806 -88.2631 89° East 158 182 7,600 -540 Descending Chicago Center
22:26 41.6906 -88.2078 76° East 156 180 7,000 -540 Descending Chicago Center
22:27 41.7269 -88.1936 16° North 142 163 6,500 -540 Descending Chicago Center
22:28 41.7658 -88.2050 348° North 142 163 5,900 -600 Descending Chicago Center
22:29 41.7817 -88.1583 66° East 142 163 5,400 -420 Descending Chicago Center
22:30 41.7925 -88.1047 75° East 146 168 5,100 -660 Descending Chicago Center
22:31 41.8228 -88.0508 53° Northeast 158 182 4,100 -900 Descending Chicago Center
22:32 41.8586 -88.0122 39° Northeast 163 188 3,300 -900 Descending Chicago Center
22:33 41.8886 -87.9764 42° Northeast 157 181 2,300 -1,020 Descending Chicago Center
22:34 41.9000 -87.9500 60° Northeast 141 162 1,700 -840 Descending Chicago TRACON
22:35 41.9333 -87.9167 37° Northeast 144 166 1,000 -720 Descending Chicago TRACON
22:37 41.9667 -87.9000 41° Northeast  Level FlightAware Approximate